Regional Weather Roundup
Issued by NWS

Home | Current Version | Previous Version | Text Only | Print | Product List | Glossary Off
Versions: 1 2 3 4 5 6 7 8 9 10 11 12 13 14 15 16 17 18 19 20 21 22 23 24 25 26 27 28 29 30 31 32 33 34 35 36 37 38 39 40 41 42 43 44 45 46 47 48 49 50

000
ASUS43 KMKX 202021
RWRWI

WISCONSIN REGIONAL WEATHER ROUNDUP
NATIONAL WEATHER SERVICE MILWAUKEE/SULLIVAN WI
300 PM CDT WED AUG 20 2014

NOTE: "FAIR" INDICATES FEW OR NO CLOUDS BELOW 12,000 FEET WITH NO
SIGNIFICANT WEATHER AND/OR OBSTRUCTIONS TO VISIBILITY.

WIZ001-002-006>008-014>016-023>028-202100-
NORTHWEST WISCONSIN

CITY           SKY/WX    TMP DP  RH WIND       PRES   REMARKS
SUPERIOR ARPT  PTSUNNY   71  60  67 NE5       29.90R
ASHLAND        CLOUDY    70  62  76 N6        29.92R
HAYWARD        CLOUDY    70  60  70 CALM      29.92R
SIREN          PTSUNNY   74  60  59 SE5       29.90F
RICE LAKE      CLOUDY    73  60  62 CALM      29.91S
LADYSMITH      CLOUDY    72  60  67 CALM      29.93S
EAU CLAIRE     MOSUNNY   75  61  61 CALM      29.88S
MENOMONIE      MOCLDY    78  61  55 CALM      29.88F HX  80
NEW RICHMOND   MOSUNNY   76  62  59 CALM      29.88F
OSCEOLA        PTSUNNY   78  64  61 E5        29.90F
$$

WIZ003>005-009-010-017-018-202100-
NORTH CENTRAL WISCONSIN

CITY           SKY/WX    TMP DP  RH WIND       PRES   REMARKS
WOODRUFF       CLOUDY    72  62  71 N3        29.91F
RHINELANDER    CLOUDY    68  58  70 VRB3      29.92S
EAGLE RIVER    CLOUDY    68  58  70 CALM      29.91R
LAND O LAKES   CLOUDY    67  59  74 N5        29.92F
PHILLIPS       CLOUDY    68  58  70 CALM      29.92R
TOMAHAWK       CLOUDY    67  59  74 W3        29.92R
MEDFORD        CLOUDY    69  61  75 CALM      29.92S
MERRILL        CLOUDY    69  60  73 CALM      29.91S
$$

WIZ029-030-035-036-043>047-202100-
CENTRAL WISCONSIN

CITY           SKY/WX    TMP DP  RH WIND       PRES   REMARKS
WAUSAU         CLOUDY    69  61  75 SW5       29.90R
MOSINEE        CLOUDY    68  63  83 VRB5      29.92S
MARSHFIELD     MOSUNNY   75  61  61 CALM      29.90F
STEVENS POINT  PTSUNNY   69  59  71 CALM      29.91F
WAUPACA        SUNNY     77  62  59 CALM      29.89F
WAUTOMA        MOSUNNY   80  63  56 SW6       29.88S HX  81
WISC RAPIDS    MOSUNNY   77  62  59 MISG      29.90S
CAMP DOUGLAS   MOSUNNY   82  68  61 VRB3      29.87F HX  85
$$

WIZ011>013-019>022-031-037>040-048>050-202100-
NORTHEAST WISCONSIN

CITY           SKY/WX    TMP DP  RH WIND       PRES   REMARKS
ANTIGO         CLOUDY    69  60  73 CALM      29.92R
STURGEON BAY   CLOUDY    70  61  73 W8        29.90F
GREEN BAY      CLOUDY    70  62  76 W5        29.90S
MANITOWOC      PTSUNNY   74  63  68 VRB3      29.89F
APPLETON       PTSUNNY   72  61  68 N5        29.90F
CLINTONVILLE   CLOUDY    70  59  68 CALM      29.89F
OSHKOSH        MOSUNNY   74  66  76 E7        29.88F
$$

WIZ032>034-041-042-053>061-202100-
SOUTHWEST WISCONSIN

CITY           SKY/WX    TMP DP  RH WIND       PRES   REMARKS
LA CROSSE      PTSUNNY   85  66  53 NE3       29.85S HX  87
SPARTA         MOSUNNY   82  61  48 W7        29.87S HX  83
VIROQUA        FAIR      80  65  59 CALM      29.89S HX  82
BOSCOBEL       CLOUDY    87  66  49 W6        29.85F HX  89
PRAIRIE DU CHI PTSUNNY   83  63  51 S3        29.84S HX  84
PLATTEVILLE    FAIR      82  66  58 S5        29.87F HX  84
$$

WIZ056-057-062-063-064-067-068-202100-
SOUTH CENTRAL WISCONSIN

CITY           SKY/WX    TMP DP  RH WIND       PRES   REMARKS
BARABOO/DELLS  MOSUNNY   82  60  47 CALM      29.87F HX  82
LONE ROCK      PTSUNNY   88  65  46 W6        29.85F HX  90
WATERTOWN      MOSUNNY   81  65  58 W3        29.86F HX  83
MADISON        PTSUNNY   84  63  49 W5        29.87S HX  85
MIDDLETON      MOCLDY    85  63  47 SW7       29.88S HX  86
MONROE         MOSUNNY   82  64  54 SW7       29.88F HX  84
JANESVILLE     MOSUNNY   88  63  42 W12       29.87  HX  88
$$

WIZ051-052-058>065-066-070>072-202100-
SOUTHEAST WISCONSIN

CITY           SKY/WX    TMP DP  RH WIND       PRES   REMARKS
MILWAUKEE      PTSUNNY   76  65  68 SE14      29.88S
WAUKESHA       PTSUNNY   79  63  57 W5        29.89F HX  80
MILWAUKEE/TIMM MOSUNNY   81  63  54 MISG      29.88F HX  82
RACINE         PTSUNNY   78  67  68 SE9       29.89F HX  80
BURLINGTON     MOSUNNY   80  65  60 W5        29.87F HX  82
KENOSHA        MOSUNNY   83  67  58 NW9       29.88F HX  85
FOND DU LAC    PTSUNNY   76  65  68 NE8       29.88F
SHEBOYGAN      CLOUDY    73  64  73 E8        29.89S
WEST BEND      CLOUDY    79  61  53 W8        29.88F HX  80
JUNEAU         PTSUNNY   80  41  25 NW5       29.89F
$$

LSZ147-162-202100-
LAKE SUPERIOR

STATION/POSITION TIME  TEMP    WIND        PRES    WAVE
                       AIR SEA DIR/SP/G            HT/PER
                 (UTC) (F)     (DEG/KT/KT) (MB)    (FT/S)
W MID LAKE BUOY  1950   61 60     CALM     1013.0R   1
DEVILS ISLAND    2000   67      50/  2/  3 1012.5F
PORT WING        1900   66     350/  4/  7 1012.5S
SAXON HARBOR     1900   68      50/  5/  6 1012.9S
$$

LMZ867-665-643>646-202100-
LAKE MICHIGAN

STATION/POSITION TIME  TEMP    WIND        PRES    WAVE
                       AIR SEA DIR/SP/G            HT/PER
                 (UTC) (F)     (DEG/KT/KT) (MB)    (FT/S)
N MID LAKE BUOY  1950   62 63  260/  6/  8 1011.6R   1
NORTHPORT PIER   1900   65     320/  7/ 10 1012.2R
SISTER BAY       1911   70     360/  5/  6   N/A
KEWAUNEE LAKESHO 2000   67     150/  5/  6 1011.5F
SHEBOYGAN LAKESH 2000   67 66  150/  6/  7 1012.4F
ATWATER BUOY     2000   69     130/  8/ 12 1013.2R
MILWAUKEE LAKESH 2000   69     120/  9/ 11   N/A
S MID LAKE BUOY  1950   70 70  120/  6/  8 1012.2F   0
KENOSHA   LAKESH 2000   74     120/ 10/ 12 1011.2F
$$

TC  - TEMPERATURE IN CELSIUS
VSB - VISIBILITY IN STATUTE MILES
WCI - WIND CHILL INDEX
HX  - HEAT INDEX




USA.gov is the U.S. government's official web portal to all federal, state and local government web resources and services.